Home > Weather > May Pen > Past weeks

Flag for Jamaica Past Weather in May Pen, Jamaica — Yesterday and Last 2 Weeks

Now
84 °F

Passing clouds.


Feels Like: 88 °F
Forecast: 75 / 92 °F
Wind: 6 mph from North

Location: Kingston / Norman Manley

Current Time: Jul 2, 2016 at 12:50:06 AM

Latest Report: Jul 2, 2016 at 12:00 AM


Visibility: N/A

Pressure: 30.01 "Hg

Humidity: 62%

Dew Point: 70 °F

Location of May PenLocation

Past Weather in May Pen — Graph

°F

May Pen Temperature Yesterday

Maximum temperature yesterday: 91 °F (at 1:00 PM)
Minimum temperature yesterday: 82 °F (at 5:00 AM)
Average temperature yesterday: 86 °F

High & Low Weather Summary for the Past Weeks

 TemperatureHumidityPressure
High91 °F (Jun 18, 1:00 PM)94% (Jun 18, 3:00 AM)30.04 "Hg (Jun 18, 3:00 AM)
Low77 °F (Jun 21, 3:00 AM)49% (Jun 26, 10:46 AM)29.89 "Hg (Jun 20, 3:00 PM)
Average85 °F69%29.96 "Hg
* Reported Jun 16 11:00 PM — Jul 1 11:00 PM, May Pen, Weather by CustomWeather, © 2016

Note: Actual official high and low records may vary slightly from our data, if they occured in-between our weather recording intervals... More about our weather records

Advertising

May Pen Weather History for the Previous 24 Hours

Scroll right to see more
 ConditionsComfort  
Time TempWeatherWind HumidityBarometerVisibility
11:00 PM
Fri, Jul 1
86 °FPassing clouds.3 mph62%30.04 "HgN/A
10:00 PM84 °FPassing clouds.9 mph66%30.01 "HgN/A
9:00 PM84 °FPassing clouds.9 mph66%30.01 "HgN/A
8:00 PM86 °FPassing clouds.22 mph62%29.98 "HgN/A
7:00 PM86 °FPassing clouds.24 mph66%29.95 "HgN/A
6:00 PM86 °FPassing clouds.24 mph70%29.95 "HgN/A
5:00 PM88 °FPassing clouds.26 mph62%29.92 "HgN/A
4:00 PM88 °FPassing clouds.25 mph66%29.92 "HgN/A
3:00 PM90 °FPassing clouds.25 mph63%29.92 "HgN/A
2:00 PM88 °FPassing clouds.25 mph66%29.95 "HgN/A
1:00 PM91 °FPassing clouds.25 mph56%29.95 "HgN/A
12:00 PM88 °FPassing clouds.23 mph70%29.98 "HgN/A
11:00 AM88 °FPassing clouds.22 mph70%29.98 "HgN/A
10:00 AM88 °FPassing clouds.20 mph66%30.01 "HgN/A
9:00 AM84 °FPartly sunny.17 mph70%30.01 "HgN/A
8:00 AM84 °FPartly sunny.16 mph66%30.01 "HgN/A
7:00 AM84 °FScattered clouds.16 mph66%29.98 "HgN/A
6:00 AM84 °FPassing clouds.18 mph70%29.98 "HgN/A
5:00 AM82 °FThundershowers. Passing clouds.9 mph70%29.95 "HgN/A
4:00 AM84 °FPassing clouds.12 mph66%29.95 "HgN/A
3:00 AM84 °FPassing clouds.12 mph70%29.95 "HgN/A
2:00 AM84 °FPassing clouds.16 mph66%29.95 "HgN/A
1:00 AM84 °FPassing clouds.20 mph70%29.95 "HgN/A
12:00 AM86 °FPassing clouds.16 mph55%29.98 "HgN/A
Weather by CustomWeather, © 2016

See weather overviewHow to use our weather pages